Regional Weather Roundup
Issued by NWS

Home | Current Version | Previous Version | Graphics & Text | Print | Product List | Glossary On
Versions: 1 2 3 4 5 6 7 8 9 10 11 12 13 14 15 16 17 18 19 20 21 22 23 24 25 26 27 28 29 30 31 32 33 34 35 36 37 38 39 40 41 42 43 44 45 46 47 48 49 50
000
ASUS43 KMPX 242201
RWRMN
WEATHER ROUNDUP FOR MINNESOTA
NATIONAL WEATHER SERVICE TWIN CITIES/CHANHASSEN MN
500 PM CDT FRI APR 24 2015


NOTE: "FAIR" INDICATES FEW OR NO CLOUDS BELOW 12,000 FEET WITH NO
SIGNIFICANT WEATHER AND/OR OBSTRUCTIONS TO VISIBILITY. N/A MEANS
CURRENT SKY AND/OR WEATHER CONDITIONS ARE NOT AVAILABLE.

MNZ060>063-068>070-242300-
   Twin Cities Metro

CITY           SKY/WX    TMP DP  RH WIND       PRES   REMARKS
TWIN CITIES    CLOUDY    47  40  76 SE17G25   29.81S
ST PAUL        CLOUDY    48  38  68 SE12      29.83F
CRYSTAL        CLOUDY    49  37  63 SE16G28   29.79F
BLAINE         CLOUDY    52  36  54 E15G22    29.80F
LAKEVILLE      LGT RAIN  43  39  87 SE14      29.80F
EDEN PRAIRIE   LGT RAIN  45  41  86 SE16      29.80R
SOUTH ST PAUL  CLOUDY    47  40  74 SE7       29.82S
LAKE ELMO      CLOUDY    50  34  53 SE14      29.83S
$$
MNZ001>005-007-008-013>017-022>024-027-028-242300-
   Northwest Minnesota

CITY           SKY/WX    TMP DP  RH WIND       PRES   REMARKS
BEMIDJI        CLOUDY    43  31  63 SE16G22   29.80S
HALLOCK        PTSUNNY   52  34  50 E16       29.77S
ROSEAU         PTSUNNY   46  34  61 SE14      29.82S
WARROAD        CLOUDY    43  34  70 E12       29.85S
THIEF RVR FALL CLOUDY    46  34  61 E18       29.78R
CROOKSTON      CLOUDY    52  37  58 SE14      29.75S
FOSSTON        CLOUDY    48  36  61 SE13G20   29.77S
DETROIT LAKES  CLOUDY    45  37  76 SE17      29.75S
MOORHEAD       PTSUNNY   52  39  62 E16       29.72R
PARK RAPIDS    CLOUDY    46  33  60 SE10      29.78R
MAHNOMEN       CLOUDY    48  37  65 SE16      29.75R
$$
MNZ006-009>011-018-025>026-242300-
   North Central Minnesota

CITY           SKY/WX    TMP DP  RH WIND       PRES   REMARKS
BAUDETTE       CLOUDY    41  31  67 E15       29.86F
FLAG ISLAND    PTSUNNY   41  27  56 E10       29.87S
INTL FALLS     CLOUDY    41  23  48 E9        29.90S
WASKISH        CLOUDY    43  34  70 E6G16     29.85S
BIG FORK       CLOUDY    45  28  53 E8        29.87S
LONGVILLE      CLOUDY    43  32  65 SE9       29.82F
GRAND RAPIDS   CLOUDY    41  28  60 SE12G21   29.86S
CRANE LAKE     CLOUDY    45  18  33 E3        29.93S
ORR            CLOUDY    45  16  31 SE8       29.88S
COOK           CLOUDY    45  21  39 E6        29.91S
WALKER         CLOUDY    42  32  68 E7        29.81S
$$
MNZ012-019>021-037-242300-
   Northeast Minnesota

CITY           SKY/WX    TMP DP  RH WIND       PRES   REMARKS
DULUTH         CLOUDY    39  28  64 E13       29.91F
ELY            CLOUDY    41  14  33 S12       29.94S
HIBBING        CLOUDY    42  26  53 SE15      29.89F
EVELETH        CLOUDY    43  23  45 SE13      29.91F
DULUTH HARBOR  CLOUDY    37  34  87 NE18      29.95F
TWO HARBORS    CLOUDY    39  27  60 NE12      29.93F
SILVER BAY     CLOUDY    37  23  56 NE13      29.96S
GRAND MARAIS     N/A     36  27  69 NE10      30.01F
G MARAIS ARPRT CLOUDY    37   9  30 E7        29.96F
$$
MNZ029>031-032-039>041-046>048-054>057-064-242300-
   West Central Minnesota

CITY           SKY/WX    TMP DP  RH WIND       PRES   REMARKS
FERGUS FALLS   CLOUDY    48  37  66 SE13      29.73R
WHEATON        PTSUNNY   52  43  71 E28       29.68S
MORRIS         PTSUNNY   54  43  66 SE23G29   29.68S
ALEXANDRIA     LGT RAIN  44  40  85 SE15G23   29.74S FOG
ELBOW LAKE     CLOUDY    47  41  80 SE15      29.71R
WADENA         CLOUDY    43  36  75 SE14      29.76S
GLENWOOD       CLOUDY    45  43  93 SE15      29.74S
APPLETON       MOSUNNY   55  43  62 SE21G29   29.67S
BENSON         CLOUDY    52  41  66 SE16G25   29.71R
ORTONVILLE     MOSUNNY   55  43  62 SE18G25   29.65R
MADISON        PTSUNNY   54  41  62 E23G29    29.66R
WILLMAR        FAIR      48  43  81 SE20G25   29.73S
$$
MNZ033>034-036-042>043-049>051-058-059-242300-
   Central Minnesota

CITY           SKY/WX    TMP DP  RH WIND       PRES   REMARKS
ST CLOUD       CLOUDY    45  41  86 SE8       29.78R
SAUK CENTRE    CLOUDY    44  41  89 E9        29.75F
PAYNESVILLE    CLOUDY    43  39  88 E14       29.75S
AITKIN         CLOUDY    45  34  65 E7        29.81F
PINE RIVER     CLOUDY    43  36  75 E10       29.84S
BRAINERD       CLOUDY    44  32  62 E8        29.80F
STAPLES        CLOUDY    45  34  65 E8G17     29.78S
LONG PRAIRIE   CLOUDY    41  37  87 E10       29.77S
LITTLE FALLS   CLOUDY    45  36  70 E10       29.78F
LITCHFIELD     CLOUDY    46  43  87 SE22      29.76S
BUFFALO        DRIZZLE   46  39  78 E15       29.79S
MAPLE LAKE     CLOUDY    47  42  83 SE13G21   29.78S
$$
MNZ037-044-045-052-053-242300-
   East Central Minnesota

CITY           SKY/WX    TMP DP  RH WIND       PRES   REMARKS
PRINCETON      CLOUDY    46  41  81 E10       29.80S
MORA           CLOUDY    46  30  53 E10G18    29.83S
CAMBRIDGE      DRIZZLE   52  37  58 SE10      29.79S
RUSH CITY      CLOUDY    51  28  41 SE12      29.82F
MOOSE LAKE     CLOUDY    39  34  81 E8        29.86F
HINCKLEY       CLOUDY    50  28  43 E9G17     29.83F
CLOQUET        CLOUDY    37  28  70 E13G20    29.89F
MCGREGOR       CLOUDY    41  34  75 E15G22    29.86F
$$
MNZ071>073-080-081-089-090-097-098-242300-
   Southwest Minnesota

CITY           SKY/WX    TMP DP  RH WIND       PRES   REMARKS
MONTEVIDEO     CLOUDY    52  45  76 S23       29.69S
GRANITE FALLS  CLOUDY    50  42  74 E15G22    29.70S
CANBY          PTSUNNY   57  44  62 SE21      29.65R
MARSHALL       CLOUDY    52  39  62 SE20      29.64F
REDWOOD FALLS  CLOUDY    48  42  80 SE18      29.70S
OLIVIA         CLOUDY    46  41  81 SE15G24   29.71S
PIPESTONE      PTSUNNY   63  50  63 SE15      29.59F
WINDOM         CLOUDY    52  45  76 SE15      29.68S
WORTHINGTON    PTSUNNY   55  46  71 SE23      29.63F
JACKSON        CLOUDY    52  43  71 SE18      29.69S
TRACY          CLOUDY    53  45  75 SE16      29.66F
SLAYTON        CLOUDY    52  47  83 E17       29.65S
$$
MNZ065>067-074>077-082>085-091>093-242300-
   South Central Minnesota

CITY           SKY/WX    TMP DP  RH WIND       PRES   REMARKS
MANKATO        CLOUDY    45  37  76 SE20G26   29.76F
NEW ULM        CLOUDY    46  41  81 SE14G20   29.73S
ST JAMES       LGT RAIN  46  43  87 E17       29.73S
FAIRMONT       CLOUDY    48  25  40 SE17G23   29.70S
GLENCOE        CLOUDY    47  44  90 E15       29.76S
FARIBAULT      RAIN      45  41  87 E15G23    29.80F
OWATONNA       RAIN      43  39  87 E14G20    29.79F
WASECA         RAIN      43  39  87 SE22      29.78F
ALBERT LEA     LGT RAIN  43  43 100 E10G18    29.77S
$$
MNZ078>079-086>088-094>096-242300-
   Southeast Minnesota

CITY           SKY/WX    TMP DP  RH WIND       PRES   REMARKS
ROCHESTER      LGT RAIN  42  39  89 SE21      29.81F FOG
RED WING       CLOUDY    50  36  57 SE17      29.83F
STANTON        CLOUDY    45  40  82 SE7       29.81S
DODGE CENTER   LGT RAIN  43  41  93 SE16      29.81R
AUSTIN         CLOUDY    43  39  87 SE15G24   29.78R
PRESTON        LGT RAIN  41  38  91 SE16G25   29.81F
$$
ABBREVIATIONS USED IN REMARKS
   TC - TEMPERATURES IN CELSIUS
  WCI - WIND CHILL INDEX
   HX - HEAT INDEX
  VSB - VISIBILITY
$$


USA.gov is the U.S. government's official web portal to all federal, state and local government web resources and services.